TimeAKDT,TemperatureF,Dew PointF,Humidity,Sea Level PressureIn,VisibilityMPH,Wind Direction,Wind SpeedMPH,Gust SpeedMPH,PrecipitationIn,Events,Conditions,WindDirDegrees,DateUTC
12:53 AM,33.1,19.9,59,29.90,10.0,NW,5.8,-,N/A,,Clear,320,2012-10-23 08:53:00
1:53 AM,33.1,23.0,66,29.90,10.0,NW,6.9,-,N/A,,Clear,320,2012-10-23 09:53:00
2:53 AM,32.0,18.0,56,29.89,10.0,WNW,5.8,-,N/A,,Clear,300,2012-10-23 10:53:00
3:53 AM,35.6,17.6,48,29.89,10.0,WNW,6.9,-,N/A,,Clear,300,2012-10-23 11:53:00
4:53 AM,34.0,17.1,50,29.90,10.0,WNW,5.8,-,N/A,,Clear,300,2012-10-23 12:53:00
5:53 AM,34.0,16.0,48,29.91,10.0,NW,5.8,-,N/A,,Clear,320,2012-10-23 13:53:00
6:53 AM,33.1,16.0,50,29.92,10.0,West,4.6,-,N/A,,Clear,280,2012-10-23 14:53:00
7:53 AM,34.0,16.0,48,29.93,10.0,WNW,4.6,-,N/A,,Clear,300,2012-10-23 15:53:00
8:53 AM,35.1,25.0,67,29.94,10.0,NW,5.8,-,N/A,,Clear,320,2012-10-23 16:53:00
9:53 AM,37.9,28.0,68,29.95,10.0,NW,6.9,-,N/A,,Clear,320,2012-10-23 17:53:00
10:53 AM,43.0,19.0,38,29.94,10.0,NW,5.8,-,N/A,,Clear,310,2012-10-23 18:53:00
11:53 AM,44.1,16.0,32,29.95,10.0,Variable,4.6,-,N/A,,Clear,0,2012-10-23 19:53:00
12:53 PM,45.0,16.0,31,29.95,10.0,North,5.8,-,N/A,,Clear,360,2012-10-23 20:53:00
1:53 PM,46.0,17.1,31,29.95,10.0,Variable,5.8,-,N/A,,Clear,0,2012-10-23 21:53:00
2:53 PM,46.9,18.0,32,29.96,10.0,East,6.9,-,N/A,,Clear,90,2012-10-23 22:53:00
3:53 PM,46.0,16.0,30,29.96,10.0,Variable,5.8,-,N/A,,Clear,0,2012-10-23 23:53:00
4:53 PM,39.9,19.0,43,29.97,10.0,Calm,Calm,-,N/A,,Clear,0,2012-10-24 00:53:00
5:53 PM,37.9,19.0,47,29.99,10.0,West,3.5,-,N/A,,Clear,270,2012-10-24 01:53:00
6:53 PM,34.0,21.0,59,29.99,10.0,WSW,3.5,-,N/A,,Clear,250,2012-10-24 02:53:00
7:53 PM,32.0,21.9,66,30.00,10.0,Calm,Calm,-,N/A,,Clear,0,2012-10-24 03:53:00
8:53 PM,30.9,21.0,67,30.01,10.0,Calm,Calm,-,N/A,,Clear,0,2012-10-24 04:53:00
9:53 PM,30.0,21.0,69,30.02,10.0,Calm,Calm,-,N/A,,Clear,0,2012-10-24 05:53:00
10:53 PM,30.0,21.0,69,30.03,10.0,WNW,3.5,-,N/A,,Clear,290,2012-10-24 06:53:00
11:53 PM,32.0,23.0,69,30.04,10.0,WNW,4.6,-,N/A,,Clear,290,2012-10-24 07:53:00